Location: Pandora
(40.9481°N, 83.9611°W)
Time: 00:03:38
(UTC-04:00)

Nauka - Pass Details

Date: 25 September 2021
Orbit: 417 x 423 km, 51.6° (Epoch: 19 October)

Event Time Altitude Azimuth Distance (km) Brightness Sun altitude
Rises 20:18:57 0° 293° (WNW) 2,361 ? -10.6°
Reaches altitude 10° 20:21:51 10° 321° (NW) 1,499 ? -11.1°
Maximum altitude 20:23:41 14° 354° (N) 1,285 ? -11.4°
Drops below altitude 10° 20:25:32 10° 27° (NNE) 1,501 ? -11.8°
Enters shadow 20:26:45 - 42° (NE) 1,815 ? -12.0°
